Estación Meteorológica de la Universidad de Murcia
Estación Meteorológica de la Universidad de Murcia
Universidad de Murcia
 

Humedad relativaHumedad relativa

 

Máxima: 85,3 % a las 23:53:00 del día 24/04/2019
Mínima: 13,4 % a las 10:13:00 del día 24/04/2019

||Humedad máxima últimos meses|| ---- ||Humedad mínima últimos meses||


Humedad máxima

  • 1 - 85,3 % del día 24/04/2019
  • 2 - 98,7 % del día 23/04/2019
  • 3 - 97,2 % del día 22/04/2019
  • 4 - 100 % del día 21/04/2019
  • 5 - 100 % del día 20/04/2019
  • 6 - 100 % del día 19/04/2019
  • 7 - 92,3 % del día 18/04/2019
  • 8 - 92,3 % del día 17/04/2019
  • 9 - 100 % del día 16/04/2019
  • 10 - 94 % del día 15/04/2019
  • 11 - 83,1 % del día 14/04/2019
  • 12 - 91,4 % del día 13/04/2019
  • 13 - 82,6 % del día 12/04/2019
  • 14 - 78,1 % del día 11/04/2019
  • 15 - 94,6 % del día 10/04/2019
  • 16 - 85,8 % del día 09/04/2019
  • 17 - 81,8 % del día 08/04/2019
  • 18 - 85,3 % del día 07/04/2019
  • 19 - 87,9 % del día 06/04/2019
  • 20 - 92,5 % del día 05/04/2019
  • 21 - 90,8 % del día 04/04/2019
  • 22 - 99,5 % del día 03/04/2019
  • 23 - 100 % del día 02/04/2019
  • 24 - 100 % del día 01/04/2019
  • 25 - 87,5 % del día 31/03/2019
  • 26 - 87,5 % del día 30/03/2019
  • 27 - 87,5 % del día 29/03/2019
  • 28 - 87,5 % del día 28/03/2019
  • 29 - 87,5 % del día 27/03/2019
  • 30 - 87,5 % del día 26/03/2019
  • 31 - 87,5 % del día 25/03/2019
  • 32 - 87,5 % del día 24/03/2019
  • 33 - 87,5 % del día 23/03/2019
  • 34 - 87,5 % del día 22/03/2019
  • 35 - 87,5 % del día 21/03/2019
  • 36 - 87,5 % del día 20/03/2019
  • 37 - 93,5 % del día 19/03/2019
  • 38 - 93,4 % del día 18/03/2019
  • 39 - 76,3 % del día 17/03/2019
  • 40 - 74,5 % del día 16/03/2019
  • 41 - 71 % del día 15/03/2019
  • 42 - 86 % del día 14/03/2019
  • 43 - 89,6 % del día 13/03/2019
  • 44 - 89,1 % del día 12/03/2019
  • 45 - 81,7 % del día 11/03/2019
  • 46 - 74,3 % del día 10/03/2019
  • 47 - 77,9 % del día 09/03/2019
  • 48 - 76 % del día 08/03/2019
  • 49 - 75,5 % del día 07/03/2019
  • 50 - 100 % del día 06/03/2019
  • 51 - 98,4 % del día 05/03/2019
  • 52 - 67,4 % del día 04/03/2019
  • 53 - 86,8 % del día 03/03/2019
  • 54 - 94,7 % del día 02/03/2019
  • 55 - 82,3 % del día 01/03/2019
  • 56 - 74 % del día 28/02/2019
  • 57 - 75,7 % del día 27/02/2019
  • 58 - 85,7 % del día 26/02/2019

||Volver al inicio de la página||


Humedad mínima

  • 1 - 13,4 % del día 24/04/2019
  • 2 - 44,5 % del día 23/04/2019
  • 3 - 54,3 % del día 22/04/2019
  • 4 - 69,2 % del día 21/04/2019
  • 5 - 97,8 % del día 20/04/2019
  • 6 - 87,9 % del día 19/04/2019
  • 7 - 57,7 % del día 18/04/2019
  • 8 - 48,7 % del día 17/04/2019
  • 9 - 24,2 % del día 16/04/2019
  • 10 - 48,6 % del día 15/04/2019
  • 11 - 19,3 % del día 14/04/2019
  • 12 - 12 % del día 13/04/2019
  • 13 - 20,5 % del día 12/04/2019
  • 14 - 21,4 % del día 11/04/2019
  • 15 - 30,2 % del día 10/04/2019
  • 16 - 23,5 % del día 09/04/2019
  • 17 - 39,3 % del día 08/04/2019
  • 18 - 30,4 % del día 07/04/2019
  • 19 - 35,6 % del día 06/04/2019
  • 20 - 37,2 % del día 05/04/2019
  • 21 - 29,9 % del día 04/04/2019
  • 22 - 34,1 % del día 03/04/2019
  • 23 - 40,1 % del día 02/04/2019
  • 24 - 73,3 % del día 01/04/2019
  • 25 - 45,7 % del día 31/03/2019
  • 26 - 45,7 % del día 30/03/2019
  • 27 - 45,7 % del día 29/03/2019
  • 28 - 45,7 % del día 28/03/2019
  • 29 - 45,7 % del día 27/03/2019
  • 30 - 45,7 % del día 26/03/2019
  • 31 - 45,7 % del día 25/03/2019
  • 32 - 45,7 % del día 24/03/2019
  • 33 - 45,7 % del día 23/03/2019
  • 34 - 45,7 % del día 22/03/2019
  • 35 - 45,7 % del día 21/03/2019
  • 36 - 45,7 % del día 20/03/2019
  • 37 - 34,7 % del día 19/03/2019
  • 38 - 24,4 % del día 18/03/2019
  • 39 - 11,3 % del día 17/03/2019
  • 40 - 14,2 % del día 16/03/2019
  • 41 - 14,4 % del día 15/03/2019
  • 42 - 16,7 % del día 14/03/2019
  • 43 - 27 % del día 13/03/2019
  • 44 - 34,2 % del día 12/03/2019
  • 45 - 45,1 % del día 11/03/2019
  • 46 - 24,2 % del día 10/03/2019
  • 47 - 25,8 % del día 09/03/2019
  • 48 - 29,9 % del día 08/03/2019
  • 49 - 24,5 % del día 07/03/2019
  • 50 - 34,8 % del día 06/03/2019
  • 51 - 37,6 % del día 05/03/2019
  • 52 - 22,5 % del día 04/03/2019
  • 53 - 21,8 % del día 03/03/2019
  • 54 - 26 % del día 02/03/2019
  • 55 - 23,7 % del día 01/03/2019
  • 56 - 8,9 % del día 28/02/2019
  • 57 - 11,8 % del día 27/02/2019
  • 58 - 21,3 % del día 26/02/2019

 

|| Temperatura Ambiente|| Velocidad y dirección del viento|| Precipitación|| Radiación Solar Global y PAR|| Temperatura y humedad del suelo|| Presión atmosférica|| Más información|| Volver a la página principal|| Volver al inicio de la página||


Estación Meteorológica de la Universidad de Murcia
http://estacion.um.es/
Informacion actualizada a: 25/04/2019 a las 00:15:00